Wetterdaten: Donnerstag, 30.11.2017
Datum Zeit Temp. A. Aussen2m Feuchte A. Feuchte 2 Luftdruck Regen Wind Richtung Richtung Sonnenschein
30.11.2017 00:00 0,4 C 0,6 C 99 % 92 % 1003,9 hPa 0,0 l/m 0,0 km/h (0 Bft) W-NW 290 0 min
30.11.2017 00:05 0,6 C 0,6 C 99 % 93 % 1003,9 hPa 0,0 l/m 0,0 km/h (0 Bft) NW 315 0 min
30.11.2017 00:10 0,6 C 0,5 C 99 % 93 % 1003,9 hPa 0,0 l/m 0,0 km/h (0 Bft) W-SW 245 0 min
30.11.2017 00:15 0,5 C 0,5 C 99 % 93 % 1003,9 hPa 0,0 l/m 0,0 km/h (0 Bft) W-SW 240 0 min
30.11.2017 00:20 0,6 C 0,5 C 99 % 93 % 1003,9 hPa 0,0 l/m 0,0 km/h (0 Bft) S-SO 165 0 min
30.11.2017 00:25 0,8 C 0,5 C 99 % 93 % 1003,9 hPa 0,0 l/m 0,0 km/h (0 Bft) S-SO 165 0 min
30.11.2017 00:30 0,9 C 0,7 C 99 % 94 % 1003,9 hPa 0,0 l/m 0,0 km/h (0 Bft) S 175 0 min
30.11.2017 00:35 0,9 C 0,7 C 99 % 94 % 1003,9 hPa 0,0 l/m 0,0 km/h (0 Bft) S 180 0 min
30.11.2017 00:40 1,0 C 0,8 C 99 % 94 % 1003,9 hPa 0,0 l/m 0,0 km/h (0 Bft) W-NW 300 0 min
30.11.2017 00:45 0,7 C 0,6 C 99 % 94 % 1003,9 hPa 0,0 l/m 0,0 km/h (0 Bft) W-NW 285 0 min
30.11.2017 00:50 0,6 C 0,6 C 99 % 94 % 1003,9 hPa 0,0 l/m 0,0 km/h (0 Bft) W-SW 245 0 min
30.11.2017 00:55 0,7 C 0,7 C 99 % 94 % 1003,9 hPa 0,0 l/m 0,0 km/h (0 Bft) W 265 0 min
30.11.2017 01:00 0,6 C 0,7 C 99 % 94 % 1003,9 hPa 0,0 l/m 0,0 km/h (0 Bft) W-NW 300 0 min
30.11.2017 01:05 0,6 C 0,7 C 99 % 94 % 1003,9 hPa 0,0 l/m 0,0 km/h (0 Bft) SW 215 0 min
30.11.2017 01:10 0,5 C 0,7 C 99 % 94 % 1003,9 hPa 0,0 l/m 0,6 km/h (0 Bft) W-SW 255 0 min
30.11.2017 01:15 0,5 C 0,6 C 99 % 94 % 1003,9 hPa 0,0 l/m 1,2 km/h (1 Bft) W-NW 290 0 min
30.11.2017 01:20 0,5 C 0,6 C 99 % 94 % 1003,9 hPa 0,0 l/m 3,6 km/h (1 Bft) W 275 0 min
30.11.2017 01:25 0,5 C 0,6 C 99 % 95 % 1003,9 hPa 0,0 l/m 1,8 km/h (1 Bft) NW 305 0 min
30.11.2017 01:30 0,3 C 0,5 C 99 % 94 % 1003,9 hPa 0,0 l/m 1,8 km/h (1 Bft) NW 315 0 min
30.11.2017 01:35 0,3 C 0,4 C 99 % 94 % 1003,9 hPa 0,0 l/m 5,4 km/h (2 Bft) W 275 0 min
30.11.2017 01:40 0,4 C 0,4 C 99 % 95 % 1003,9 hPa 0,0 l/m 3,0 km/h (1 Bft) S-SW 200 0 min
30.11.2017 01:45 0,6 C 0,5 C 99 % 95 % 1003,9 hPa 0,0 l/m 1,2 km/h (1 Bft) SW 220 0 min
30.11.2017 01:50 0,8 C 0,7 C 99 % 96 % 1003,9 hPa 0,0 l/m 2,4 km/h (1 Bft) SW 235 0 min
30.11.2017 01:55 0,8 C 0,8 C 99 % 96 % 1003,9 hPa 0,0 l/m 1,8 km/h (1 Bft) SW 235 0 min
30.11.2017 02:00 0,9 C 0,9 C 99 % 96 % 1002,9 hPa 0,0 l/m 0,6 km/h (0 Bft) S 185 0 min
30.11.2017 02:05 0,9 C 0,9 C 99 % 96 % 1002,9 hPa 0,0 l/m 0,0 km/h (0 Bft) S-SW 210 0 min
30.11.2017 02:10 1,0 C 1,0 C 99 % 96 % 1002,9 hPa 0,0 l/m 0,0 km/h (0 Bft) S 190 0 min
30.11.2017 02:15 1,1 C 1,0 C 99 % 96 % 1002,9 hPa 0,0 l/m 1,2 km/h (1 Bft) SW 225 0 min
30.11.2017 02:20 1,0 C 1,1 C 99 % 95 % 1002,9 hPa 0,0 l/m 0,0 km/h (0 Bft) S-SW 205 0 min
30.11.2017 02:25 1,0 C 1,1 C 99 % 95 % 1002,9 hPa 0,0 l/m 0,0 km/h (0 Bft) W-SW 250 0 min
30.11.2017 02:30 1,0 C 1,1 C 99 % 95 % 1002,9 hPa 0,0 l/m 1,2 km/h (1 Bft) NW 305 0 min
30.11.2017 02:35 0,9 C 1,1 C 99 % 95 % 1002,9 hPa 0,0 l/m 2,4 km/h (1 Bft) SW 235 0 min
30.11.2017 02:40 0,9 C 1,1 C 99 % 95 % 1002,9 hPa 0,0 l/m 0,6 km/h (0 Bft) S 175 0 min
30.11.2017 02:45 0,9 C 1,1 C 99 % 95 % 1002,9 hPa 0,0 l/m 1,2 km/h (1 Bft) S-SW 210 0 min
30.11.2017 02:50 1,0 C 1,1 C 99 % 95 % 1002,9 hPa 0,0 l/m 4,8 km/h (1 Bft) SW 235 0 min
30.11.2017 02:55 1,0 C 1,1 C 99 % 95 % 1002,9 hPa 0,0 l/m 3,0 km/h (1 Bft) W-SW 240 0 min
30.11.2017 03:00 1,1 C 1,2 C 99 % 95 % 1003,9 hPa 0,0 l/m 1,8 km/h (1 Bft) S-SW 205 0 min
30.11.2017 03:05 1,1 C 1,2 C 99 % 95 % 1003,9 hPa 0,0 l/m 3,0 km/h (1 Bft) S-SW 200 0 min
30.11.2017 03:10 1,2 C 1,3 C 99 % 95 % 1003,9 hPa 0,0 l/m 6,1 km/h (2 Bft) S-SW 210 0 min
30.11.2017 03:15 1,2 C 1,3 C 99 % 95 % 1002,9 hPa 0,0 l/m 4,2 km/h (1 Bft) SW 220 0 min
30.11.2017 03:20 1,2 C 1,3 C 99 % 95 % 1002,9 hPa 0,0 l/m 3,0 km/h (1 Bft) S-SW 195 0 min
30.11.2017 03:25 1,2 C 1,3 C 99 % 95 % 1002,9 hPa 0,0 l/m 6,7 km/h (2 Bft) S-SO 155 0 min
30.11.2017 03:30 1,2 C 1,3 C 99 % 95 % 1003,9 hPa 0,0 l/m 4,8 km/h (1 Bft) S-SO 155 0 min
30.11.2017 03:35 1,2 C 1,4 C 99 % 95 % 1003,9 hPa 0,0 l/m 3,0 km/h (1 Bft) O-SO 105 0 min
30.11.2017 03:40 1,2 C 1,3 C 99 % 95 % 1003,9 hPa 0,0 l/m 4,2 km/h (1 Bft) O-SO 115 0 min
30.11.2017 03:45 1,2 C 1,3 C 99 % 95 % 1003,9 hPa 0,0 l/m 4,2 km/h (1 Bft) S 190 0 min
30.11.2017 03:50 1,2 C 1,3 C 99 % 95 % 1003,9 hPa 0,0 l/m 4,8 km/h (1 Bft) SO 140 0 min
30.11.2017 03:55 1,2 C 1,3 C 99 % 95 % 1003,9 hPa 0,0 l/m 3,6 km/h (1 Bft) S 185 0 min
30.11.2017 04:00 1,2 C 1,4 C 99 % 95 % 1002,9 hPa 0,0 l/m 4,8 km/h (1 Bft) SO 140 0 min
30.11.2017 04:05 1,2 C 1,4 C 99 % 95 % 1002,9 hPa 0,0 l/m 7,9 km/h (2 Bft) SO 140 0 min
30.11.2017 04:10 1,2 C 1,4 C 99 % 95 % 1002,9 hPa 0,0 l/m 5,4 km/h (2 Bft) S 170 0 min
30.11.2017 04:15 1,2 C 1,3 C 99 % 95 % 1002,9 hPa 0,0 l/m 4,2 km/h (1 Bft) SO 140 0 min
30.11.2017 04:20 1,2 C 1,4 C 99 % 95 % 1002,9 hPa 0,0 l/m 7,3 km/h (2 Bft) S-SO 160 0 min
30.11.2017 04:25 1,2 C 1,4 C 99 % 95 % 1002,9 hPa 0,0 l/m 5,4 km/h (2 Bft) S-SO 150 0 min
30.11.2017 04:30 1,2 C 1,4 C 99 % 95 % 1002,9 hPa 0,0 l/m 7,9 km/h (2 Bft) S-SO 165 0 min
30.11.2017 04:35 1,3 C 1,4 C 99 % 95 % 1002,9 hPa 0,0 l/m 3,6 km/h (1 Bft) SW 225 0 min
30.11.2017 04:40 1,3 C 1,4 C 99 % 95 % 1002,9 hPa 0,0 l/m 5,4 km/h (2 Bft) S-SW 205 0 min
30.11.2017 04:45 1,3 C 1,4 C 99 % 95 % 1002,9 hPa 0,0 l/m 4,2 km/h (1 Bft) S-SW 210 0 min
30.11.2017 04:50 1,3 C 1,5 C 99 % 95 % 1002,9 hPa 0,0 l/m 4,2 km/h (1 Bft) S-SW 195 0 min
30.11.2017 04:55 1,4 C 1,5 C 99 % 95 % 1002,9 hPa 0,0 l/m 9,1 km/h (2 Bft) S 175 0 min
30.11.2017 05:00 1,4 C 1,5 C 99 % 95 % 1002,9 hPa 0,0 l/m 7,3 km/h (2 Bft) S-SO 165 0 min
30.11.2017 05:05 1,5 C 1,6 C 99 % 95 % 1002,9 hPa 0,0 l/m 4,8 km/h (1 Bft) S-SW 195 0 min
30.11.2017 05:10 1,5 C 1,6 C 99 % 95 % 1002,9 hPa 0,0 l/m 8,5 km/h (2 Bft) SO 140 0 min
30.11.2017 05:15 1,6 C 1,7 C 99 % 95 % 1002,9 hPa 0,0 l/m 7,3 km/h (2 Bft) S-SW 210 0 min
30.11.2017 05:20 1,6 C 1,7 C 99 % 95 % 1002,9 hPa 0,0 l/m 3,0 km/h (1 Bft) S-SW 205 0 min
30.11.2017 05:25 1,6 C 1,8 C 99 % 95 % 1002,9 hPa 0,0 l/m 4,8 km/h (1 Bft) W-SW 240 0 min
30.11.2017 05:30 1,7 C 1,8 C 99 % 95 % 1002,9 hPa 0,0 l/m 4,8 km/h (1 Bft) W-SW 240 0 min
30.11.2017 05:35 1,9 C 1,9 C 99 % 96 % 1002,9 hPa 0,0 l/m 5,4 km/h (2 Bft) SW 220 0 min
30.11.2017 05:40 1,8 C 1,9 C 99 % 96 % 1002,9 hPa 0,0 l/m 6,7 km/h (2 Bft) SW 235 0 min
30.11.2017 05:45 1,8 C 1,9 C 99 % 96 % 1002,9 hPa 0,0 l/m 4,8 km/h (1 Bft) W 265 0 min
30.11.2017 05:50 1,8 C 2,0 C 99 % 96 % 1002,9 hPa 0,0 l/m 4,8 km/h (1 Bft) S-SW 210 0 min
30.11.2017 05:55 2,0 C 2,0 C 99 % 96 % 1002,9 hPa 0,0 l/m 7,9 km/h (2 Bft) SW 215 0 min
30.11.2017 06:00 1,9 C 2,0 C 99 % 96 % 1002,9 hPa 0,0 l/m 7,3 km/h (2 Bft) W-SW 245 0 min
30.11.2017 06:05 1,9 C 2,0 C 99 % 96 % 1002,9 hPa 0,0 l/m 6,1 km/h (2 Bft) W-SW 255 0 min
30.11.2017 06:10 1,9 C 2,1 C 99 % 96 % 1002,9 hPa 0,0 l/m 3,6 km/h (1 Bft) SW 225 0 min
30.11.2017 06:15 2,0 C 2,1 C 99 % 96 % 1001,8 hPa 0,0 l/m 6,1 km/h (2 Bft) SW 220 0 min
30.11.2017 06:20 2,1 C 2,2 C 99 % 96 % 1001,8 hPa 0,0 l/m 3,6 km/h (1 Bft) W-SW 240 0 min
30.11.2017 06:25 2,1 C 2,2 C 99 % 96 % 1001,8 hPa 0,0 l/m 2,4 km/h (1 Bft) W 270 0 min
30.11.2017 06:30 2,2 C 2,2 C 99 % 96 % 1002,9 hPa 0,0 l/m 4,2 km/h (1 Bft) W-SW 240 0 min
30.11.2017 06:35 2,2 C 2,3 C 99 % 96 % 1002,8 hPa 0,0 l/m 5,4 km/h (2 Bft) S 190 0 min
30.11.2017 06:40 2,3 C 2,3 C 99 % 96 % 1002,8 hPa 0,0 l/m 6,1 km/h (2 Bft) W-SW 245 0 min
30.11.2017 06:45 2,3 C 2,4 C 99 % 96 % 1002,8 hPa 0,0 l/m 4,2 km/h (1 Bft) SW 235 0 min
30.11.2017 06:50 2,4 C 2,4 C 99 % 96 % 1002,8 hPa 0,0 l/m 4,8 km/h (1 Bft) N-NW 335 0 min
30.11.2017 06:55 2,4 C 2,5 C 99 % 96 % 1002,8 hPa 0,0 l/m 6,1 km/h (2 Bft) SW 215 0 min
30.11.2017 07:00 2,4 C 2,5 C 99 % 96 % 1001,8 hPa 0,0 l/m 3,6 km/h (1 Bft) W-NW 300 0 min
30.11.2017 07:05 2,5 C 2,5 C 99 % 96 % 1001,8 hPa 0,0 l/m 4,8 km/h (1 Bft) SW 235 0 min
30.11.2017 07:10 2,5 C 2,6 C 99 % 97 % 1001,8 hPa 0,0 l/m 4,2 km/h (1 Bft) SW 225 0 min
30.11.2017 07:15 2,5 C 2,6 C 99 % 97 % 1001,8 hPa 0,0 l/m 4,8 km/h (1 Bft) SW 220 0 min
30.11.2017 07:20 2,6 C 2,7 C 99 % 96 % 1001,8 hPa 0,0 l/m 3,6 km/h (1 Bft) W 260 0 min
30.11.2017 07:25 2,6 C 2,7 C 99 % 96 % 1001,8 hPa 0,0 l/m 6,1 km/h (2 Bft) W-SW 240 0 min
30.11.2017 07:30 2,6 C 2,7 C 99 % 96 % 1001,8 hPa 0,0 l/m 3,6 km/h (1 Bft) N-NW 335 0 min
30.11.2017 07:35 2,6 C 2,7 C 99 % 96 % 1001,8 hPa 0,0 l/m 4,2 km/h (1 Bft) S-SW 200 0 min
30.11.2017 07:40 2,6 C 2,7 C 99 % 96 % 1001,8 hPa 0,0 l/m 6,1 km/h (2 Bft) NW 305 0 min
30.11.2017 07:45 2,7 C 2,7 C 99 % 95 % 1001,8 hPa 0,0 l/m 2,4 km/h (1 Bft) SW 225 0 min
30.11.2017 07:50 2,7 C 2,7 C 99 % 95 % 1001,8 hPa 0,0 l/m 2,4 km/h (1 Bft) NW 305 0 min
30.11.2017 07:55 2,7 C 2,8 C 99 % 95 % 1001,8 hPa 0,0 l/m 7,9 km/h (2 Bft) W 280 0 min
30.11.2017 08:00 2,7 C 2,8 C 99 % 95 % 1001,8 hPa 0,0 l/m 1,8 km/h (1 Bft) N-NW 330 0 min
30.11.2017 08:05 2,7 C 2,8 C 99 % 95 % 1001,8 hPa 0,0 l/m 5,4 km/h (2 Bft) W 280 0 min
30.11.2017 08:10 2,7 C 2,8 C 99 % 95 % 1001,8 hPa 0,0 l/m 5,4 km/h (2 Bft) SW 235 0 min
30.11.2017 08:15 2,7 C 2,8 C 99 % 95 % 1001,8 hPa 0,0 l/m 3,0 km/h (1 Bft) SW 235 0 min
30.11.2017 08:20 2,6 C 2,7 C 99 % 95 % 1001,8 hPa 0,0 l/m 3,0 km/h (1 Bft) W-NW 295 0 min
30.11.2017 08:25 2,7 C 2,7 C 99 % 95 % 1001,8 hPa 0,0 l/m 4,2 km/h (1 Bft) S 180 0 min
30.11.2017 08:30 2,7 C 2,7 C 99 % 95 % 1002,8 hPa 0,0 l/m 4,8 km/h (1 Bft) N-NW 345 0 min
30.11.2017 08:35 2,7 C 2,8 C 99 % 95 % 1002,8 hPa 0,0 l/m 4,2 km/h (1 Bft) SW 235 0 min
30.11.2017 08:40 2,8 C 2,8 C 99 % 95 % 1002,8 hPa 0,0 l/m 8,5 km/h (2 Bft) W-SW 245 0 min
30.11.2017 08:45 2,8 C 2,9 C 99 % 95 % 1001,8 hPa 0,0 l/m 7,9 km/h (2 Bft) W-SW 240 0 min
30.11.2017 08:50 2,8 C 2,9 C 99 % 95 % 1001,8 hPa 0,0 l/m 7,3 km/h (2 Bft) W 275 0 min
30.11.2017 08:55 2,8 C 2,9 C 99 % 95 % 1001,8 hPa 0,0 l/m 9,1 km/h (2 Bft) SO 145 0 min
30.11.2017 09:00 2,8 C 2,9 C 99 % 95 % 1001,8 hPa 0,0 l/m 4,2 km/h (1 Bft) SW 225 0 min
30.11.2017 09:05 2,8 C 2,9 C 99 % 95 % 1001,8 hPa 0,0 l/m 8,5 km/h (2 Bft) W-NW 295 0 min
30.11.2017 09:10 2,9 C 3,0 C 99 % 95 % 1001,8 hPa 0,0 l/m 5,4 km/h (2 Bft) W-SW 240 0 min
30.11.2017 09:15 2,9 C 2,9 C 99 % 95 % 1001,8 hPa 0,0 l/m 6,7 km/h (2 Bft) SW 225 0 min
30.11.2017 09:20 2,9 C 2,9 C 99 % 95 % 1001,8 hPa 0,0 l/m 6,1 km/h (2 Bft) SW 215 0 min
30.11.2017 09:25 3,0 C 3,0 C 98 % 95 % 1001,8 hPa 0,0 l/m 6,1 km/h (2 Bft) SW 230 0 min
30.11.2017 09:30 3,1 C 3,0 C 99 % 95 % 1001,8 hPa 0,0 l/m 6,1 km/h (2 Bft) SW 230 0 min
30.11.2017 09:35 3,1 C 3,1 C 99 % 95 % 1001,8 hPa 0,0 l/m 7,3 km/h (2 Bft) SW 230 0 min
30.11.2017 09:40 3,1 C 3,1 C 98 % 95 % 1001,8 hPa 0,0 l/m 7,3 km/h (2 Bft) SW 215 0 min
30.11.2017 09:45 3,1 C 3,1 C 98 % 95 % 1002,8 hPa 0,0 l/m 6,7 km/h (2 Bft) W 260 0 min
30.11.2017 09:50 3,1 C 3,1 C 98 % 94 % 1002,8 hPa 0,0 l/m 13,3 km/h (3 Bft) SW 235 0 min
30.11.2017 09:55 3,1 C 3,2 C 98 % 94 % 1002,8 hPa 0,0 l/m 9,7 km/h (2 Bft) W 280 0 min
30.11.2017 10:00 3,2 C 3,2 C 98 % 94 % 1001,8 hPa 0,0 l/m 7,9 km/h (2 Bft) NW 320 0 min
30.11.2017 10:05 3,2 C 3,3 C 98 % 94 % 1001,8 hPa 0,0 l/m 11,5 km/h (2 Bft) SW 220 0 min
30.11.2017 10:10 3,3 C 3,3 C 98 % 94 % 1001,8 hPa 0,0 l/m 9,7 km/h (2 Bft) W-NW 285 0 min
30.11.2017 10:15 3,3 C 3,4 C 97 % 94 % 1001,8 hPa 0,0 l/m 10,9 km/h (2 Bft) W-SW 240 0 min
30.11.2017 10:20 3,3 C 3,4 C 97 % 94 % 1001,8 hPa 0,0 l/m 4,8 km/h (1 Bft) W-SW 245 0 min
30.11.2017 10:25 3,3 C 3,4 C 97 % 94 % 1001,8 hPa 0,0 l/m 10,3 km/h (2 Bft) W-NW 290 0 min
30.11.2017 10:30 3,3 C 3,4 C 98 % 94 % 1001,8 hPa 0,0 l/m 9,7 km/h (2 Bft) W 270 0 min
30.11.2017 10:35 3,3 C 3,4 C 98 % 94 % 1001,8 hPa 0,0 l/m 6,1 km/h (2 Bft) W 265 0 min
30.11.2017 10:40 3,3 C 3,5 C 97 % 94 % 1001,8 hPa 0,0 l/m 10,9 km/h (2 Bft) NW 310 0 min
30.11.2017 10:45 3,3 C 3,4 C 97 % 94 % 1001,8 hPa 0,0 l/m 9,1 km/h (2 Bft) W-NW 290 0 min
30.11.2017 10:50 3,3 C 3,4 C 97 % 94 % 1001,8 hPa 0,0 l/m 9,7 km/h (2 Bft) W-SW 240 0 min
30.11.2017 10:55 3,3 C 3,5 C 97 % 94 % 1001,8 hPa 0,0 l/m 8,5 km/h (2 Bft) W-SW 240 0 min
30.11.2017 11:00 3,4 C 3,5 C 97 % 94 % 1001,8 hPa 0,0 l/m 7,3 km/h (2 Bft) W 260 0 min
30.11.2017 11:05 3,4 C 3,5 C 97 % 93 % 1001,8 hPa 0,0 l/m 7,3 km/h (2 Bft) W-SW 250 0 min
30.11.2017 11:10 3,4 C 3,5 C 97 % 93 % 1001,8 hPa 0,0 l/m 7,3 km/h (2 Bft) W-SW 250 0 min
30.11.2017 11:15 3,5 C 3,6 C 96 % 93 % 1001,8 hPa 0,0 l/m 7,9 km/h (2 Bft) SW 225 0 min
30.11.2017 11:20 3,5 C 3,6 C 96 % 93 % 1001,8 hPa 0,0 l/m 12,1 km/h (2 Bft) W-NW 290 0 min
30.11.2017 11:25 3,6 C 3,6 C 96 % 93 % 1001,8 hPa 0,0 l/m 10,9 km/h (2 Bft) W-NW 295 0 min
30.11.2017 11:30 3,7 C 3,7 C 96 % 93 % 1000,8 hPa 0,0 l/m 6,7 km/h (2 Bft) NW 305 0 min
30.11.2017 11:35 3,7 C 3,8 C 95 % 93 % 1000,8 hPa 0,0 l/m 13,3 km/h (3 Bft) W-NW 300 0 min
30.11.2017 11:40 3,8 C 3,8 C 96 % 93 % 1000,8 hPa 0,0 l/m 6,1 km/h (2 Bft) W 260 0 min
30.11.2017 11:45 3,8 C 3,9 C 96 % 93 % 1000,8 hPa 0,0 l/m 10,3 km/h (2 Bft) N 0 0 min
30.11.2017 11:50 3,8 C 3,9 C 95 % 92 % 1000,8 hPa 0,0 l/m 10,3 km/h (2 Bft) W 280 0 min
30.11.2017 11:55 3,9 C 3,9 C 95 % 92 % 1000,8 hPa 0,0 l/m 9,1 km/h (2 Bft) W-SW 245 0 min
30.11.2017 12:00 3,9 C 4,0 C 95 % 92 % 1000,8 hPa 0,0 l/m 9,7 km/h (2 Bft) SW 235 0 min
30.11.2017 12:05 3,9 C 4,0 C 95 % 92 % 1000,8 hPa 0,0 l/m 8,5 km/h (2 Bft) W-NW 285 0 min
30.11.2017 12:10 3,9 C 4,0 C 95 % 92 % 1000,8 hPa 0,0 l/m 9,7 km/h (2 Bft) W-NW 285 0 min
30.11.2017 12:15 3,9 C 4,0 C 95 % 92 % 1000,8 hPa 0,0 l/m 12,1 km/h (2 Bft) W-SW 245 0 min
30.11.2017 12:20 3,9 C 4,0 C 95 % 92 % 1000,8 hPa 0,0 l/m 12,7 km/h (3 Bft) W-NW 300 0 min
30.11.2017 12:25 3,8 C 4,0 C 95 % 92 % 1000,8 hPa 0,0 l/m 13,9 km/h (3 Bft) W-NW 300 0 min
30.11.2017 12:30 3,9 C 4,0 C 96 % 92 % 1000,8 hPa 0,0 l/m 9,7 km/h (2 Bft) S-SW 200 0 min
30.11.2017 12:35 3,9 C 4,0 C 96 % 92 % 1000,8 hPa 0,0 l/m 7,3 km/h (2 Bft) W-SW 255 0 min
30.11.2017 12:40 3,9 C 4,1 C 95 % 92 % 1000,8 hPa 0,0 l/m 10,9 km/h (2 Bft) N-NW 335 0 min
30.11.2017 12:45 3,9 C 4,1 C 95 % 92 % 1000,8 hPa 0,0 l/m 10,3 km/h (2 Bft) W 265 0 min
30.11.2017 12:50 4,0 C 4,1 C 95 % 92 % 1000,8 hPa 0,0 l/m 8,5 km/h (2 Bft) W-NW 295 0 min
30.11.2017 12:55 4,0 C 4,1 C 95 % 92 % 1000,8 hPa 0,0 l/m 9,7 km/h (2 Bft) SW 230 0 min
30.11.2017 13:00 4,1 C 4,1 C 94 % 91 % 1000,8 hPa 0,0 l/m 15,7 km/h (3 Bft) N-NO 20 0 min
30.11.2017 13:05 4,1 C 4,2 C 93 % 90 % 1000,8 hPa 0,0 l/m 18,8 km/h (3 Bft) W-NW 300 0 min
30.11.2017 13:10 4,1 C 4,2 C 93 % 90 % 1000,8 hPa 0,0 l/m 16,9 km/h (3 Bft) W 270 0 min
30.11.2017 13:15 4,1 C 4,2 C 92 % 90 % 1000,8 hPa 0,0 l/m 13,9 km/h (3 Bft) W-NW 285 0 min
30.11.2017 13:20 4,1 C 4,2 C 92 % 90 % 1000,8 hPa 0,0 l/m 20,0 km/h (4 Bft) NW 305 0 min
30.11.2017 13:25 4,1 C 4,2 C 92 % 90 % 1000,8 hPa 0,0 l/m 18,2 km/h (3 Bft) S-SO 155 0 min
30.11.2017 13:30 4,1 C 4,2 C 91 % 89 % 1000,8 hPa 0,0 l/m 16,9 km/h (3 Bft) W-NW 295 0 min
30.11.2017 13:35 4,0 C 4,1 C 92 % 89 % 1000,8 hPa 0,0 l/m 18,8 km/h (3 Bft) NO 50 0 min
30.11.2017 13:40 3,9 C 4,1 C 92 % 89 % 1000,8 hPa 0,0 l/m 12,1 km/h (2 Bft) W-SW 250 0 min
30.11.2017 13:45 3,9 C 4,0 C 92 % 89 % 1000,8 hPa 0,0 l/m 13,3 km/h (3 Bft) W-SW 255 0 min
30.11.2017 13:50 3,8 C 4,0 C 93 % 90 % 1000,8 hPa 0,0 l/m 13,9 km/h (3 Bft) NW 310 0 min
30.11.2017 13:55 3,7 C 3,9 C 92 % 89 % 1000,8 hPa 0,0 l/m 11,5 km/h (2 Bft) W 265 0 min
30.11.2017 14:00 3,6 C 3,9 C 93 % 90 % 1000,8 hPa 0,0 l/m 10,3 km/h (2 Bft) W 265 0 min
30.11.2017 14:05 3,5 C 3,8 C 92 % 90 % 1000,8 hPa 0,0 l/m 12,1 km/h (2 Bft) W 270 0 min
30.11.2017 14:10 3,5 C 3,8 C 93 % 90 % 1000,8 hPa 0,0 l/m 12,1 km/h (2 Bft) N 355 0 min
30.11.2017 14:15 3,5 C 3,7 C 93 % 90 % 1000,8 hPa 0,0 l/m 14,5 km/h (3 Bft) SW 215 0 min
30.11.2017 14:20 3,5 C 3,7 C 93 % 90 % 1000,8 hPa 0,0 l/m 13,3 km/h (3 Bft) SW 215 0 min
30.11.2017 14:25 3,4 C 3,6 C 93 % 90 % 1000,8 hPa 0,0 l/m 11,5 km/h (2 Bft) N-NO 25 0 min
30.11.2017 14:30 3,4 C 3,6 C 93 % 90 % 1000,8 hPa 0,0 l/m 12,1 km/h (2 Bft) W-NW 295 0 min
30.11.2017 14:35 3,4 C 3,6 C 94 % 90 % 1000,8 hPa 0,0 l/m 11,5 km/h (2 Bft) W-NW 290 0 min
30.11.2017 14:40 3,4 C 3,6 C 93 % 90 % 1000,8 hPa 0,0 l/m 12,7 km/h (3 Bft) SW 215 0 min
30.11.2017 14:45 3,4 C 3,6 C 93 % 89 % 1000,8 hPa 0,0 l/m 15,7 km/h (3 Bft) NW 310 0 min
30.11.2017 14:50 3,4 C 3,6 C 93 % 90 % 1000,8 hPa 0,0 l/m 9,1 km/h (2 Bft) W 270 0 min
30.11.2017 14:55 3,4 C 3,5 C 93 % 90 % 1000,8 hPa 0,0 l/m 10,9 km/h (2 Bft) W 280 0 min
30.11.2017 15:00 3,4 C 3,5 C 93 % 90 % 1000,8 hPa 0,0 l/m 6,1 km/h (2 Bft) W 260 0 min
30.11.2017 15:05 3,4 C 3,6 C 93 % 90 % 1000,8 hPa 0,0 l/m 6,1 km/h (2 Bft) S-SW 195 0 min
30.11.2017 15:10 3,4 C 3,6 C 93 % 90 % 1000,8 hPa 0,0 l/m 7,9 km/h (2 Bft) W-SW 255 0 min
30.11.2017 15:15 3,4 C 3,5 C 93 % 90 % 1000,8 hPa 0,0 l/m 6,1 km/h (2 Bft) SW 220 0 min
30.11.2017 15:20 3,4 C 3,6 C 93 % 89 % 1000,8 hPa 0,0 l/m 4,2 km/h (1 Bft) W-SW 240 0 min
30.11.2017 15:25 3,4 C 3,6 C 93 % 90 % 1000,8 hPa 0,0 l/m 3,0 km/h (1 Bft) SW 235 0 min
30.11.2017 15:30 3,4 C 3,6 C 93 % 90 % 1000,8 hPa 0,0 l/m 3,0 km/h (1 Bft) W-SW 245 0 min
30.11.2017 15:35 3,5 C 3,6 C 93 % 90 % 1000,8 hPa 0,0 l/m 6,1 km/h (2 Bft) SW 225 0 min
30.11.2017 15:40 3,5 C 3,6 C 92 % 89 % 1000,8 hPa 0,0 l/m 8,5 km/h (2 Bft) SW 235 0 min
30.11.2017 15:45 3,5 C 3,7 C 93 % 90 % 1000,8 hPa 0,0 l/m 7,3 km/h (2 Bft) W-SW 240 0 min
30.11.2017 15:50 3,4 C 3,6 C 93 % 90 % 1000,8 hPa 0,0 l/m 5,4 km/h (2 Bft) S 180 0 min
30.11.2017 15:55 3,4 C 3,6 C 93 % 90 % 1000,8 hPa 0,0 l/m 4,2 km/h (1 Bft) SW 220 0 min
30.11.2017 16:00 3,4 C 3,6 C 94 % 90 % 999,8 hPa 0,0 l/m 9,7 km/h (2 Bft) SW 235 0 min
30.11.2017 16:05 3,4 C 3,7 C 94 % 90 % 999,8 hPa 0,0 l/m 5,4 km/h (2 Bft) W-SW 240 0 min
30.11.2017 16:10 3,4 C 3,6 C 95 % 91 % 999,8 hPa 0,0 l/m 4,8 km/h (1 Bft) S-SW 210 0 min
30.11.2017 16:15 3,4 C 3,6 C 94 % 90 % 1000,8 hPa 0,0 l/m 6,1 km/h (2 Bft) S 180 0 min
30.11.2017 16:20 3,4 C 3,6 C 94 % 90 % 1000,8 hPa 0,0 l/m 6,7 km/h (2 Bft) S 175 0 min
30.11.2017 16:25 3,4 C 3,6 C 94 % 90 % 1000,8 hPa 0,0 l/m 3,6 km/h (1 Bft) S 175 0 min
30.11.2017 16:30 3,4 C 3,6 C 94 % 90 % 1000,8 hPa 0,0 l/m 5,4 km/h (2 Bft) S-SW 210 0 min
30.11.2017 16:35 3,4 C 3,6 C 94 % 90 % 1000,8 hPa 0,0 l/m 7,3 km/h (2 Bft) S-SW 200 0 min
30.11.2017 16:40 3,4 C 3,6 C 94 % 90 % 1000,8 hPa 0,0 l/m 4,2 km/h (1 Bft) S 175 0 min
30.11.2017 16:45 3,5 C 3,6 C 94 % 91 % 1001,8 hPa 0,0 l/m 8,5 km/h (2 Bft) S 190 0 min
30.11.2017 16:50 3,5 C 3,6 C 94 % 91 % 1001,8 hPa 0,0 l/m 7,9 km/h (2 Bft) S 185 0 min
30.11.2017 16:55 3,5 C 3,6 C 95 % 91 % 1001,8 hPa 0,0 l/m 6,1 km/h (2 Bft) W 280 0 min
30.11.2017 17:00 3,5 C 3,6 C 95 % 91 % 1000,8 hPa 0,0 l/m 5,4 km/h (2 Bft) S 180 0 min
30.11.2017 17:05 3,5 C 3,6 C 95 % 91 % 1000,8 hPa 0,0 l/m 4,8 km/h (1 Bft) S-SW 205 0 min
30.11.2017 17:10 3,5 C 3,7 C 95 % 91 % 1000,8 hPa 0,0 l/m 6,1 km/h (2 Bft) S 190 0 min
30.11.2017 17:15 3,5 C 3,6 C 95 % 91 % 1001,8 hPa 0,0 l/m 4,8 km/h (1 Bft) W-SW 245 0 min
30.11.2017 17:20 3,5 C 3,6 C 95 % 91 % 1001,8 hPa 0,0 l/m 4,8 km/h (1 Bft) SW 230 0 min
30.11.2017 17:25 3,5 C 3,6 C 95 % 91 % 1001,8 hPa 0,0 l/m 6,1 km/h (2 Bft) W-SW 250 0 min
30.11.2017 17:30 3,4 C 3,6 C 95 % 91 % 1000,8 hPa 0,0 l/m 7,3 km/h (2 Bft) SW 230 0 min
30.11.2017 17:35 3,4 C 3,6 C 95 % 91 % 1000,8 hPa 0,0 l/m 7,9 km/h (2 Bft) S-SW 210 0 min
30.11.2017 17:40 3,4 C 3,6 C 95 % 91 % 1000,8 hPa 0,0 l/m 4,8 km/h (1 Bft) SW 220 0 min
30.11.2017 17:45 3,4 C 3,6 C 95 % 91 % 1000,8 hPa 0,0 l/m 4,2 km/h (1 Bft) SW 220 0 min
30.11.2017 17:50 3,4 C 3,6 C 95 % 91 % 1000,8 hPa 0,0 l/m 4,8 km/h (1 Bft) W-SW 255 0 min
30.11.2017 17:55 3,5 C 3,6 C 94 % 91 % 1000,8 hPa 0,0 l/m 6,1 km/h (2 Bft) SW 225 0 min
30.11.2017 18:00 3,5 C 3,6 C 95 % 91 % 1001,8 hPa 0,0 l/m 2,4 km/h (1 Bft) SW 230 0 min
30.11.2017 18:05 3,4 C 3,6 C 95 % 91 % 1001,8 hPa 0,0 l/m 4,8 km/h (1 Bft) SW 225 0 min
30.11.2017 18:10 3,4 C 3,6 C 95 % 91 % 1001,8 hPa 0,0 l/m 3,6 km/h (1 Bft) SW 220 0 min
30.11.2017 18:15 3,4 C 3,6 C 95 % 91 % 1001,8 hPa 0,0 l/m 3,0 km/h (1 Bft) SW 230 0 min
30.11.2017 18:20 3,4 C 3,6 C 95 % 91 % 1001,8 hPa 0,0 l/m 4,8 km/h (1 Bft) SW 220 0 min
30.11.2017 18:25 3,5 C 3,6 C 94 % 91 % 1001,8 hPa 0,0 l/m 4,8 km/h (1 Bft) SW 225 0 min
30.11.2017 18:30 3,4 C 3,6 C 94 % 91 % 1001,8 hPa 0,0 l/m 4,2 km/h (1 Bft) S-SW 195 0 min
30.11.2017 18:35 3,4 C 3,6 C 94 % 91 % 1001,8 hPa 0,0 l/m 7,3 km/h (2 Bft) W 265 0 min
30.11.2017 18:40 3,4 C 3,6 C 94 % 91 % 1001,8 hPa 0,0 l/m 4,2 km/h (1 Bft) S-SW 205 0 min
30.11.2017 18:45 3,4 C 3,6 C 95 % 91 % 1001,8 hPa 0,0 l/m 4,2 km/h (1 Bft) SW 230 0 min
30.11.2017 18:50 3,4 C 3,6 C 95 % 91 % 1001,8 hPa 0,0 l/m 4,8 km/h (1 Bft) SW 220 0 min
30.11.2017 18:55 3,4 C 3,6 C 95 % 91 % 1001,8 hPa 0,0 l/m 7,3 km/h (2 Bft) SW 230 0 min
30.11.2017 19:00 3,4 C 3,6 C 95 % 91 % 1001,8 hPa 0,0 l/m 8,5 km/h (2 Bft) SW 230 0 min
30.11.2017 19:05 3,3 C 3,5 C 95 % 91 % 1001,8 hPa 0,0 l/m 10,9 km/h (2 Bft) SW 235 0 min
30.11.2017 19:10 3,1 C 3,4 C 96 % 91 % 1001,8 hPa 0,0 l/m 9,1 km/h (2 Bft) SW 235 0 min
30.11.2017 19:15 3,0 C 3,3 C 96 % 91 % 1001,8 hPa 0,0 l/m 9,7 km/h (2 Bft) SW 230 0 min
30.11.2017 19:20 3,0 C 3,3 C 96 % 91 % 1001,8 hPa 0,0 l/m 6,1 km/h (2 Bft) SW 225 0 min
30.11.2017 19:25 2,9 C 3,2 C 96 % 92 % 1001,8 hPa 0,0 l/m 8,5 km/h (2 Bft) SW 230 0 min
30.11.2017 19:30 2,9 C 3,1 C 96 % 92 % 1001,8 hPa 0,0 l/m 7,3 km/h (2 Bft) W-SW 240 0 min
30.11.2017 19:35 2,9 C 3,1 C 96 % 92 % 1001,8 hPa 0,0 l/m 6,1 km/h (2 Bft) W-SW 240 0 min
30.11.2017 19:40 2,9 C 3,1 C 97 % 92 % 1001,8 hPa 0,0 l/m 5,4 km/h (2 Bft) W-SW 245 0 min
30.11.2017 19:45 3,0 C 3,1 C 97 % 93 % 1001,8 hPa 0,0 l/m 3,6 km/h (1 Bft) SW 235 0 min
30.11.2017 19:50 3,0 C 3,1 C 97 % 93 % 1001,8 hPa 0,0 l/m 5,4 km/h (2 Bft) NW 310 0 min
30.11.2017 19:55 3,0 C 3,1 C 97 % 93 % 1001,8 hPa 0,0 l/m 6,7 km/h (2 Bft) S-SW 210 0 min
30.11.2017 20:00 2,9 C 3,1 C 97 % 93 % 1001,8 hPa 0,0 l/m 4,8 km/h (1 Bft) SW 215 0 min
30.11.2017 20:05 2,9 C 3,1 C 97 % 93 % 1001,8 hPa 0,0 l/m 7,3 km/h (2 Bft) SW 220 0 min
30.11.2017 20:10 2,9 C 3,1 C 98 % 93 % 1001,8 hPa 0,0 l/m 6,1 km/h (2 Bft) W-SW 240 0 min
30.11.2017 20:15 2,8 C 3,1 C 98 % 93 % 1002,8 hPa 0,0 l/m 3,6 km/h (1 Bft) SW 220 0 min
30.11.2017 20:20 2,8 C 3,0 C 98 % 93 % 1002,8 hPa 0,0 l/m 5,4 km/h (2 Bft) W-SW 240 0 min
30.11.2017 20:25 2,8 C 3,0 C 98 % 93 % 1002,8 hPa 0,0 l/m 4,2 km/h (1 Bft) SW 225 0 min
30.11.2017 20:30 2,8 C 3,0 C 98 % 93 % 1002,8 hPa 0,0 l/m 4,2 km/h (1 Bft) S-SW 210 0 min
30.11.2017 20:35 2,8 C 3,0 C 98 % 93 % 1002,8 hPa 0,0 l/m 4,2 km/h (1 Bft) SW 235 0 min
30.11.2017 20:40 2,8 C 3,0 C 98 % 93 % 1002,8 hPa 0,0 l/m 2,4 km/h (1 Bft) S-SW 200 0 min
30.11.2017 20:45 2,7 C 3,0 C 98 % 93 % 1001,8 hPa 0,0 l/m 4,8 km/h (1 Bft) S-SW 210 0 min
30.11.2017 20:50 2,7 C 3,0 C 98 % 93 % 1001,8 hPa 0,0 l/m 3,6 km/h (1 Bft) SW 220 0 min
30.11.2017 20:55 2,7 C 2,9 C 98 % 93 % 1001,8 hPa 0,0 l/m 6,7 km/h (2 Bft) SW 220 0 min
30.11.2017 21:00 2,7 C 2,9 C 98 % 93 % 1001,8 hPa 0,0 l/m 2,4 km/h (1 Bft) W-SW 245 0 min
30.11.2017 21:05 2,7 C 2,9 C 98 % 93 % 1001,8 hPa 0,0 l/m 4,2 km/h (1 Bft) SW 235 0 min
30.11.2017 21:10 2,7 C 2,9 C 98 % 93 % 1001,8 hPa 0,0 l/m 3,6 km/h (1 Bft) S-SW 195 0 min
30.11.2017 21:15 2,7 C 2,9 C 98 % 93 % 1002,8 hPa 0,0 l/m 4,8 km/h (1 Bft) SW 230 0 min
30.11.2017 21:20 2,6 C 2,8 C 99 % 93 % 1002,8 hPa 0,0 l/m 5,4 km/h (2 Bft) S-SW 205 0 min
30.11.2017 21:25 2,6 C 2,8 C 99 % 93 % 1002,8 hPa 0,0 l/m 3,6 km/h (1 Bft) W 270 0 min
30.11.2017 21:30 2,6 C 2,8 C 99 % 93 % 1001,8 hPa 0,0 l/m 1,8 km/h (1 Bft) S-SW 195 0 min
30.11.2017 21:35 2,6 C 2,8 C 99 % 94 % 1001,8 hPa 0,0 l/m 1,2 km/h (1 Bft) S-SW 210 0 min
30.11.2017 21:40 2,6 C 2,8 C 99 % 94 % 1001,8 hPa 0,0 l/m 2,4 km/h (1 Bft) SW 225 0 min
30.11.2017 21:45 2,7 C 2,8 C 99 % 94 % 1001,8 hPa 0,0 l/m 1,8 km/h (1 Bft) SW 220 0 min
30.11.2017 21:50 2,7 C 2,8 C 99 % 94 % 1001,8 hPa 0,0 l/m 2,4 km/h (1 Bft) SW 225 0 min
30.11.2017 21:55 2,7 C 2,8 C 99 % 94 % 1001,8 hPa 0,0 l/m 3,6 km/h (1 Bft) S-SW 205 0 min
30.11.2017 22:00 2,6 C 2,8 C 99 % 94 % 1002,8 hPa 0,0 l/m 4,2 km/h (1 Bft) W-SW 245 0 min
30.11.2017 22:05 2,7 C 2,8 C 99 % 94 % 1002,8 hPa 0,0 l/m 4,2 km/h (1 Bft) SW 215 0 min
30.11.2017 22:10 2,7 C 2,8 C 99 % 94 % 1002,8 hPa 0,0 l/m 2,4 km/h (1 Bft) SW 225 0 min
30.11.2017 22:15 2,7 C 2,8 C 99 % 94 % 1002,8 hPa 0,0 l/m 2,4 km/h (1 Bft) W-SW 250 0 min
30.11.2017 22:20 2,7 C 2,8 C 99 % 94 % 1002,8 hPa 0,0 l/m 1,8 km/h (1 Bft) SW 225 0 min
30.11.2017 22:25 2,7 C 2,9 C 99 % 94 % 1002,8 hPa 0,0 l/m 1,2 km/h (1 Bft) S-SW 210 0 min
30.11.2017 22:30 2,7 C 2,8 C 99 % 94 % 1002,8 hPa 0,0 l/m 1,2 km/h (1 Bft) SW 225 0 min
30.11.2017 22:35 2,7 C 2,9 C 99 % 94 % 1002,8 hPa 0,0 l/m 2,4 km/h (1 Bft) W-SW 255 0 min
30.11.2017 22:40 2,7 C 2,9 C 99 % 94 % 1002,8 hPa 0,0 l/m 3,6 km/h (1 Bft) W-SW 255 0 min
30.11.2017 22:45 2,7 C 2,9 C 99 % 94 % 1002,8 hPa 0,0 l/m 0,6 km/h (0 Bft) W-SW 255 0 min
30.11.2017 22:50 2,7 C 2,8 C 99 % 94 % 1002,8 hPa 0,0 l/m 1,2 km/h (1 Bft) SW 215 0 min
30.11.2017 22:55 2,7 C 2,8 C 99 % 94 % 1002,8 hPa 0,0 l/m 1,8 km/h (1 Bft) W-NW 285 0 min
30.11.2017 23:00 2,7 C 2,8 C 98 % 94 % 1002,8 hPa 0,0 l/m 1,2 km/h (1 Bft) NW 310 0 min
30.11.2017 23:05 2,7 C 2,8 C 99 % 94 % 1002,8 hPa 0,0 l/m 4,2 km/h (1 Bft) W-NW 290 0 min
30.11.2017 23:10 2,6 C 2,8 C 98 % 94 % 1002,8 hPa 0,0 l/m 2,4 km/h (1 Bft) W-NW 285 0 min
30.11.2017 23:15 2,6 C 2,8 C 98 % 94 % 1003,8 hPa 0,0 l/m 1,8 km/h (1 Bft) NW 310 0 min
30.11.2017 23:20 2,6 C 2,7 C 98 % 94 % 1003,8 hPa 0,0 l/m 0,6 km/h (0 Bft) W-SW 240 0 min
30.11.2017 23:25 2,6 C 2,7 C 98 % 94 % 1003,8 hPa 0,0 l/m 1,2 km/h (1 Bft) SW 230 0 min
30.11.2017 23:30 2,6 C 2,8 C 98 % 94 % 1003,8 hPa 0,0 l/m 0,6 km/h (0 Bft) W-NW 290 0 min
30.11.2017 23:35 2,6 C 2,7 C 98 % 94 % 1003,8 hPa 0,0 l/m 1,2 km/h (1 Bft) NW 310 0 min
30.11.2017 23:40 2,6 C 2,7 C 98 % 94 % 1003,8 hPa 0,0 l/m 0,0 km/h (0 Bft) SW 230 0 min
30.11.2017 23:45 2,6 C 2,7 C 98 % 94 % 1003,8 hPa 0,0 l/m 0,0 km/h (0 Bft) SW 215 0 min
30.11.2017 23:50 2,6 C 2,7 C 98 % 94 % 1003,8 hPa 0,0 l/m 0,0 km/h (0 Bft) W-SW 240 0 min
30.11.2017 23:55 2,6 C 2,8 C 98 % 94 % 1003,8 hPa 0,0 l/m 1,2 km/h (1 Bft) S 180 0 min
_ Min-Zeit 01:30 01:35 13:30 13:30 16:05 - 00:00 - - -
Minimum _ 0,3 C 0,4 C 91 % 89 % 999,8 hPa - 0,0 km/h (0 Bft) - - -
_ Max-Zeit 13:00 13:05 00:00 07:10 01:35 00:00 13:20 - - 00:00
Maximum _ 4,1 C 4,2 C 99 % 97 % 1003,9 hPa 0,0 l/m 20,0 km/h
NW (4 Bft)
- - 0 min
Durchschnitt _ 2,6 C 2,7 C 97 % 93 % 1002,1 hPa #0,0 l/m 5,8 km/h (2 Bft) SW - #0 min.